< < Back
Terminal Aerodrome Forecast


Current Version              Previous Versions:   1  2  3  4  5  6  7  8  9  

Terminal Aerodrome Forecast

628
FTUS42 KFFC 261950 AAA
TAFFTY
TAF AMD
KFTY 261950Z 2620/2718 30012G18KT P6SM SKC
     FM262100 26007KT P6SM SCT080
     FM270300 25007KT P6SM BKN050
     FM271000 29006KT P6SM BKN030
     FM271600 31010KT P6SM BKN050=



Latest METAR

942
SAUS70 KWBC 260900 RRX
MTRFTY
METAR KFTY 270853Z 27008KT 10SM CLR 06/M03 A3014 RMK AO2 SLP204
T00611033 53021


USA.gov is the U.S. government's official web portal to all federal, state and local government web resources and services.